Notices

What's New in latest Release from April 7th, 2021:

- Updated Glossary, including Speed of Maximum Gust, and Total Hourly Precipitation

- Updated national and regional climate services offices contacts and prices information

- Addition of station inventory lists for 1981-2010, 1971-2000, and 1961-1990 Normals.

If you haven't already, please take our survey and provide feedback about our website: https://eccc.sondage-survey.ca/f/LanguageSelection.aspx?s=442ca660-fcf1-47c0-95a9-59707d6fd709

Hourly Data Report for January 18, 2004

TORONTO CITY
ONTARIO

43°40'00.000" N
79°24'00.000" W
112.50 m
6158355
71508
XTO

Download Data

Hourly Data (January 2004)
Hourly Data Report for January 18, 2004
TIME
LST
Temp Definition
°C
Dew Point Definition
°C
Rel Hum Definition
%
Precip. Amount Definition
mm

Wind Dir Definition
10's deg

Wind Spd Definition
km/h
Visibility Definition
km
Stn Press Definition
kPa
Hmdx Definition


Wind Chill Definition


Weather Definition


00:00 -3.0 -3.9 93   LegendMM LegendMM LegendMM 98.92     LegendNANA
01:00 -2.6 -3.5 94   LegendMM LegendMM LegendMM 98.81     LegendNANA
02:00 -3.1 -4.6 89   LegendMM LegendMM LegendMM 98.73     LegendNANA
03:00 -3.3 -5.2 87   LegendMM LegendMM LegendMM 98.70     LegendNANA
04:00 -3.2 -5.0 87   LegendMM LegendMM LegendMM 98.65     LegendNANA
05:00 -3.0 -4.7 88   LegendMM LegendMM LegendMM 98.63     LegendNANA
06:00 -2.8 -4.8 86   LegendMM LegendMM LegendMM 98.63     LegendNANA
07:00 -2.5 -5.5 80   LegendMM LegendMM LegendMM 98.69     LegendNANA
08:00 -3.3 -6.8 77   LegendMM LegendMM LegendMM 98.70     LegendNANA
09:00 -2.6 -6.7 73   LegendMM LegendMM LegendMM 98.73     LegendNANA
10:00 -3.2 -8.9 65   LegendMM LegendMM LegendMM 98.75     LegendNANA
11:00 -3.4 -9.3 64   LegendMM LegendMM LegendMM 98.78     LegendNANA
12:00 -3.1 -10.1 58   LegendMM LegendMM LegendMM 98.71     LegendNANA
13:00 -2.2 -9.7 56   LegendMM LegendMM LegendMM 98.66     LegendNANA
14:00 -2.5 -9.6 58   LegendMM LegendMM LegendMM 98.65     LegendNANA
15:00 -3.1 -9.8 60   LegendMM LegendMM LegendMM 98.67     LegendNANA
16:00 -2.9 -8.6 65   LegendMM LegendMM LegendMM 98.70     LegendNANA
17:00 -3.3 -8.3 68   LegendMM LegendMM LegendMM 98.77     LegendNANA
18:00 -5.2 -11.3 62   LegendMM LegendMM LegendMM 98.86     LegendNANA
19:00 -6.6 -12.3 64   LegendMM LegendMM LegendMM 98.97     LegendNANA
20:00 -7.8 -13.7 63   LegendMM LegendMM LegendMM 99.03     LegendNANA
21:00 -8.8 -14.0 66   LegendMM LegendMM LegendMM 99.09     LegendNANA
22:00 -9.4 -14.1 69   LegendMM LegendMM LegendMM 99.15     LegendNANA
23:00 -9.6 -14.1 70   LegendMM LegendMM LegendMM 99.22     LegendNANA

Notes on Data Quality.

Legend

  • E = Estimated
  • M = Missing
  • NA = Not Available*
  • [empty] = Indicates an unobserved value
Date modified: